EW7336 Weather Reports


time (UTC)temp
C
wind
direction
speed
KPH
gust
KPH
rain 1hr
cm
rain 24hr
cm
rain mn
cm
humidity
%
barometer
mb
20260503173105 14 205 11.3 22.5 0.00 0.00 0.00 43 1018.1
20260503171557 14 198 12.9 22.5 0.00 0.00 0.00 46 1018.3
20260503081510 1 355 0.0 1.6 0.00 0.00 0.00 93 1018.9
20260503071558 1 355 0.0 0.0 0.00 0.00 0.00 93 1018.8
20260503070103 1 355 0.0 0.0 0.00 0.00 0.00 92 1018.8
20260503054554 1 355 0.0 0.0 0.00 0.00 0.00 91 1019.3
20260503053048 1 355 0.0 0.0 0.00 0.00 0.00 91 1019.4
20260503051546 1 355 0.0 0.0 0.00 0.00 0.00 91 1019.3
20260503050044 2 355 0.0 0.0 0.00 0.00 0.00 90 1019.3
20260503044548 2 355 0.0 0.0 0.00 0.00 0.00 90 1019.3
20260503043043 2 355 0.0 0.0 0.00 0.00 0.00 89 1019.1
20260503041546 2 355 0.0 0.0 0.00 0.00 0.00 89 1019.1
20260503040044 2 355 0.0 0.0 0.00 0.00 0.00 89 1019.1
20260503034542 2 355 0.0 0.0 0.00 0.00 0.00 88 1019.2
20260503033040 2 355 0.0 0.0 0.00 0.00 0.00 86 1019.2
20260503031544 3 355 0.0 0.0 0.00 0.00 0.00 86 1019.3
20260503030034 3 355 0.0 0.0 0.00 0.00 0.00 84 1019.4
20260503024533 3 355 0.0 0.0 0.00 0.00 0.00 83 1019.3
20260503023031 4 355 0.0 0.0 0.00 0.00 0.00 80 1019.2
20260503021531 4 355 0.0 0.0 0.00 0.00 0.00 77 1019.1
20260503020031 5 355 0.0 0.0 0.00 0.00 0.00 74 1019.0
20260503014539 6 355 0.0 0.0 0.00 0.00 0.00 72 1018.8
20260503013029 6 355 0.0 3.2 0.00 0.00 0.00 67 1018.7
20260503011529 7 355 0.0 1.6 0.00 0.00 0.00 59 1018.5
20260503010027 7 355 0.0 1.6 0.00 0.00 0.00 57 1018.4
20260503004527 8 355 0.0 4.8 0.00 0.00 0.00 57 1018.3
20260503003026 8 355 1.6 6.4 0.00 0.00 0.00 53 1018.2
20260503001526 9 355 1.6 9.7 0.00 0.00 0.00 52 1018.1
20260503000025 10 321 4.8 12.9 0.00 0.00 0.00 48 1018.0
20260502234524 10 5 6.4 12.9 0.00 0.00 0.00 47 1017.9
20260502233024 10 355 4.8 14.5 0.00 0.00 0.00 48 1017.8
20260502231523 11 9 3.2 11.3 0.00 0.00 0.00 45 1017.8
20260502230022 10 24 3.2 12.9 0.00 0.00 0.00 48 1017.8
20260502224521 11 322 4.8 9.7 0.00 0.00 0.00 46 1017.7
20260502223021 11 23 8.0 20.9 0.00 0.00 0.00 43 1017.7
20260502221521 11 331 6.4 17.7 0.00 0.00 0.00 47 1017.6
20260502220028 11 5 4.8 16.1 0.00 0.00 0.00 47 1017.5
20260502214518 11 343 1.6 19.3 0.00 0.00 0.00 47 1017.6
20260502213018 11 277 3.2 16.1 0.00 0.00 0.00 48 1017.5
20260502211526 11 360 6.4 20.9 0.00 0.00 0.00 46 1017.3
20260502210017 11 5 6.4 16.1 0.00 0.00 0.00 50 1017.4
20260502204516 11 316 6.4 17.7 0.00 0.00 0.00 47 1017.4
20260502203015 11 15 8.0 19.3 0.00 0.00 0.00 46 1017.5
20260502201514 12 318 6.4 14.5 0.00 0.00 0.00 46 1017.5
20260502200013 11 297 4.8 16.1 0.00 0.00 0.00 47 1017.7
20260502194512 11 290 4.8 14.5 0.00 0.00 0.00 50 1017.8
20260502193013 11 5 6.4 17.7 0.00 0.00 0.00 46 1017.8
20260502191509 11 317 6.4 27.4 0.00 0.00 0.00 48 1018.0
20260502190011 11 355 3.2 16.1 0.00 0.00 0.00 47 1018.2
20260502184512 11 5 8.0 16.1 0.00 0.00 0.00 46 1018.2
20260502183006 11 355 8.0 19.3 0.00 0.00 0.00 48 1018.3
20260502181505 11 344 4.8 14.5 0.00 0.00 0.00 50 1018.4